Rionegro, Colombia

2:07 AM -05 on June 28, 2017 (GMT -0500)
Jose Maria Cordova

Weather History for SKRG - November, 2012

Change the Weather History Date:

Friday, November 23, 2012

  Actual Average Record
Temperature  
Mean Temperature 64 °F -  
Max Temperature 71 °F 68 °F 78 °F (2006)
Min Temperature 57 °F 53 °F 51 °F (2010)
Degree Days  
Heating Degree Days 1    
Growing Degree Days 14 (Base 50)    
Moisture  
Dew Point 57 °F    
Average Humidity 82    
Maximum Humidity 100    
Minimum Humidity 44    
Precipitation  
Precipitation 0.00 in - - ()
Sea Level Pressure  
Sea Level Pressure 30.27 in    
Wind  
Wind Speed 3 mph ()    
Max Wind Speed 13 mph    
Max Gust Speed -    
Visibility 5.6 miles    
Events      
Averages and records for this station are not official NWS values.
T = Trace of Precipitation, MM = Missing Value Source: Averaged Metar Reports

Daily Weather History Graph

Daily Weather History Graph

Search for Another Location

Airport or City:

Trip Planner

Search our weather history database for the weather conditions in past years. The results will help you decide how hot, cold, wet, or windy it might be!

Date:

Astronomy

Nov. 23, 2012 Rise Set
Actual Time 5:53 AM -05 5:42 PM -05
Civil Twilight 5:31 AM -05 6:04 PM -05
Nautical Twilight 5:06 AM -05 6:30 PM -05
Astronomical Twilight 4:40 AM -05 6:56 PM -05
Moon 2:14 PM -05 (11/23) 1:57 AM -05 (11/23)
Length of Visible Light 12h 33m
Length of Day
11h 48m
Waxing Gibbous, 79% of the Moon is Illuminated
Nov 23
Waxing Gibbous
Nov 28
Full
Dec 6
Last Quarter
Dec 13
New
Dec 20
First Quarter

Hourly Weather History & Observations

Time (-05) Temp. Dew Point Humidity Pressure Visibility Wind Dir Wind Speed Gust Speed Precip Events Conditions
12:00 AM 59.0 °F 57.2 °F 94% 30.30 in 3.7 mi Calm Calm - N/A   Mostly Cloudy
1:00 AM 59 °F 57 °F 92%  in 4 mi Calm Calm - -   Haze
1:00 AM 59.0 °F 57.2 °F 94% 30.30 in 3.7 mi Calm Calm - N/A   Mostly Cloudy
2:00 AM 59.0 °F 57.2 °F 94% 30.28 in 3.7 mi Calm Calm - N/A   Mostly Cloudy
3:00 AM 59.0 °F 57.2 °F 94% 30.26 in 3.7 mi Calm Calm - N/A   Mostly Cloudy
4:00 AM 58 °F 57 °F 96%  in 3 mi Calm Calm - -   Haze
4:00 AM 59.0 °F 57.2 °F 94% 30.25 in 3.1 mi Calm Calm - N/A   Haze
5:00 AM 59.0 °F 57.2 °F 94% 30.26 in 2.5 mi Calm Calm - N/A   Haze
5:30 AM 57.2 °F 57.2 °F 100% 30.27 in 2.5 mi Calm Calm - N/A   Haze
6:00 AM 57.2 °F 57.2 °F 100% 30.27 in 2.5 mi Calm Calm - N/A   Haze
7:00 AM 59.0 °F 57.2 °F 94% 30.30 in 3.7 mi Calm Calm - N/A   Scattered Clouds
8:00 AM 60.8 °F 57.2 °F 88% 30.32 in 5.0 mi NNW 4.6 mph - N/A   Scattered Clouds
9:00 AM 62.6 °F 57.2 °F 82% 30.33 in 6.2 mi East 5.8 mph - N/A   Mostly Cloudy
10:00 AM 64.4 °F 57.2 °F 77% 30.33 in 6.2 mi Calm Calm - N/A   Scattered Clouds
11:00 AM 68.0 °F 57.2 °F 68% 30.30 in 6.2 mi SSE 5.8 mph - N/A   Scattered Clouds
12:00 PM 71.6 °F 55.4 °F 57% 30.27 in 6.2 mi East 11.5 mph - N/A   Scattered Clouds
1:00 PM 71 °F 54 °F 44%  in 12 mi East 13.4 mph - -   Haze
1:00 PM 71.6 °F 53.6 °F 53% 30.25 in 6.2 mi East 12.7 mph - N/A   Scattered Clouds
2:00 PM 69.8 °F 51.8 °F 53% 30.22 in 6.2 mi East 8.1 mph - N/A   Mostly Cloudy
3:00 PM 69.8 °F 55.4 °F 60% 30.20 in 6.2 mi East 6.9 mph - N/A   Scattered Clouds
4:00 PM 68 °F 58 °F 62%  in 12 mi ENE 8.9 mph - -   Haze
4:00 PM 68.0 °F 57.2 °F 68% 30.19 in 6.2 mi ENE 9.2 mph - N/A   Scattered Clouds
5:00 PM 66.2 °F 57.2 °F 73% 30.20 in 6.2 mi NE 6.9 mph - N/A   Scattered Clouds
6:00 PM 62.6 °F 59.0 °F 88% 30.21 in 6.2 mi NNE 8.1 mph - N/A   Scattered Clouds
7:00 PM 62 °F 58 °F 82%  in 12 mi NNE 6.7 mph - -   Haze
7:00 PM 62.6 °F 57.2 °F 82% 30.24 in 6.2 mi NNE 5.8 mph - N/A   Scattered Clouds
8:00 PM 60.8 °F 59.0 °F 94% 30.27 in 6.2 mi Variable 2.3 mph - N/A   Scattered Clouds
9:00 PM 60.8 °F 59.0 °F 94% 30.28 in 6.2 mi Variable 2.3 mph - N/A   Partly Cloudy
10:00 PM 60 °F 58 °F 91%  in 6 mi Calm Calm - -   Haze
10:00 PM 60.8 °F 59.0 °F 94% 30.29 in 6.2 mi Calm Calm - N/A   Scattered Clouds
11:00 PM 59.0 °F 57.2 °F 94% 30.28 in 5.0 mi West 4.6 mph - N/A   Scattered Clouds